Regional Weather Roundup
Issued by NWS Glasgow, MT

Home | Current Version | Previous Version | Text Only | Print | Product List | Glossary On
Versions: 1 2 3 4 5 6 7 8 9 10 11 12 13 14 15 16 17 18 19 20 21 22 23 24 25 26 27 28
000
ASUS45 KGGW 250015
RWRGGW
HOURLY WEATHER ROUNDUP FOR NORTHEAST MONTANA
NATIONAL WEATHER SERVICE GLASGOW MONTANA
600 PM MDT THU APR 24 2014

NOTE: "FAIR" INDICATES FEW OR NO CLOUDS BELOW 12,000 FEET WITH NO
SIGNIFICANT WEATHER AND/OR OBSTRUCTIONS TO VISISBILITY.

NORTHEAST MONTANA


CITY           SKY/WX    TMP DP  RH WIND       PRES   REMARKS
GLASGOW        PTSUNNY   59  21  23 W16       29.68S
6HR MIN TEMP:  53; 6HR MAX TEMP:  63;

PLENTYWOOD       N/A     57  25  29 NW12        N/A
WOLF POINT     MOSUNNY   61  16  17 NW7       29.70R
JORDAN           N/A     57  31  37 W9        29.73S
WINNETT          N/A     56  34  43 SE2         N/A
SIDNEY         MOSUNNY   59  21  23 W9        29.73S
GLENDIVE       MOSUNNY   59  19  21 W13       29.73S

FORT PECK REPORTS


CITY           SKY/WX    TMP DP  RH WIND       PRES   REMARKS
FORT PECK        N/A     54  30  40 SW9         N/A
THE PINES        N/A     59  27  29 SW10        N/A

SOUTHEAST MONTANA


CITY           SKY/WX    TMP DP  RH WIND       PRES   REMARKS
BILLINGS       PTSUNNY   59  30  33 W22G33    29.74F
MILES CITY     CLOUDY    58  30  34 NW10      29.74S
BAKER          PTSUNNY   57  21  24 W16       29.74S
LIVINGSTON     CLOUDY    54  29  38 SW26G36   29.77S

CENTRAL MONTANA


CITY           SKY/WX    TMP DP  RH WIND       PRES   REMARKS
HAVRE          CLOUDY    59  33  37 SW20      29.68F
LEWISTOWN      PTSUNNY   50  35  56 SE3       29.72F
GREAT FALLS    CLOUDY    53  34  48 NW9       29.73R
CUT BANK       PTSUNNY   50  30  46 W21       29.71R
HELENA         MOSUNNY   50  38  63 VRB3      29.79F
BUTTE          PTSUNNY   47  31  53 N3        29.82F
BOZEMAN        PTSUNNY   54  32  43 SW16G22   29.80S

WESTERN MONTANA


CITY           SKY/WX    TMP DP  RH WIND       PRES   REMARKS
MISSOULA       CLOUDY    52  37  56 SW8       29.84R
KALISPELL      NOT AVBL

NORTH DAKOTA


CITY           SKY/WX    TMP DP  RH WIND       PRES   REMARKS
WILLISTON      MOSUNNY   58  25  28 W8        29.70S
DICKINSON      SUNNY     58  21  24 NW22      29.70S
MINOT          MOSUNNY   56  33  42 N10       29.69R
BISMARCK       SUNNY     61  25  25 NW14G25   29.70R

SOUTHERN SASKATCHEWAN


CITY           SKY/WX    TMP DP  RH WIND       PRES   REMARKS
REGINA         MOSUNNY   52  36  54 NW17      29.67R
MOOSE JAW      PTSUNNY   54  36  50 NW12G18   29.67R
ESTEVAN        MOSUNNY   55  30  38 NW14      29.68R
SWIFT CURRENT  SUNNY     54  23  30 NW16G22   29.65R




USA.gov is the U.S. government's official web portal to all federal, state and local government web resources and services.